This demonstration page uses our WeatherBlox Daily Observations layout. Learn more.

Left ArrowRight Arrow

Hourly Observations for September 3, 2022

Temp ( °F °C ) Dew Point ( °F °C ) Humidity (%) Winds ( mph kmh ) Pressure ( in mb ) Visibility ( mi km ) Precip ( " mm )
12:53 am 00:53 Clear 75 23.9 67 19.4 76 76 ESE 7 11 29.95 1014 10 16 0.00 0.00
1:53 am 01:53 Clear 73 22.8 63 17.2 71 71 NE 3 6 29.95 1014 10 16 0.00 0.00
2:53 am 02:53 Clear 75 23.9 64 17.8 69 69 Calm 29.94 1014 10 16 0.00 0.00
3:53 am 03:53 Clear 73 22.8 65 18.3 76 76 E 3 6 29.94 1014 10 16 0.00 0.00
4:53 am 04:53 Clear 73 22.8 64 17.8 73 73 E 6 9 29.95 1014 10 16 0.00 0.00
5:53 am 05:53 Clear 72 22.2 64 17.8 76 76 E 7 11 29.97 1015 10 16 0.00 0.00
6:53 am 06:53 Sunny 75 23.9 65 18.3 71 71 E 5 7 29.98 1015 10 16 0.00 0.00
7:53 am 07:53 Sunny 78 25.6 68 20 71 71 S 3 6 30.00 1016 10 16 0.00 0.00
8:53 am 08:53 Mostly Sunny 79 26.1 70 21.1 74 74 SSW 7 11 30.00 1016 10 16 0.00 0.00
9:53 am 09:53 Mostly Sunny 81 27.2 70 21.1 69 69 WSW 9 15 30.00 1016 10 16 0.00 0.00
10:53 am 10:53 Mostly Sunny 81 27.2 71 21.7 72 72 W 9 15 30.00 1016 10 16 0.00 0.00
11:53 am 11:53 Mostly Sunny 82 27.8 71 21.7 69 69 WSW 10 17 29.99 1016 10 16 0.00 0.00
12:53 pm 12:53 Sunny 86 30 71 21.7 61 61 WSW 10 17 29.98 1015 10 16 0.00 0.00
1:53 pm 13:53 Partly Cloudy 86 30 71 21.7 61 61 WSW 12 19 29.96 1015 10 16 0.00 0.00
2:53 pm 14:53 Partly Cloudy 85 29.4 72 22.2 65 65 WSW 10 17 29.95 1014 10 16 0.00 0.00
3:53 pm 15:53 Partly Cloudy 85 29.4 72 22.2 65 65 WSW 9 15 29.95 1014 10 16 0.00 0.00
4:53 pm 16:53 Mostly Cloudy 84 28.9 73 22.8 70 70 WSW 7 11 29.95 1014 10 16 0.00 0.00
5:53 pm 17:53 Mostly Cloudy 82 27.8 72 22.2 72 72 SW 6 9 29.96 1015 10 16 0.00 0.00
6:53 pm 18:53 Mostly Cloudy 82 27.8 73 22.8 74 74 SSW 3 6 29.98 1015 10 16 0.00 0.00
7:53 pm 19:53 Clear 81 27.2 73 22.8 77 77 S 6 9 29.99 1016 10 16 0.00 0.00
8:53 pm 20:53 Clear 80 26.7 72 22.2 76 76 SE 7 11 30.01 1016 10 16 0.00 0.00
9:53 pm 21:53 Partly Cloudy 80 26.7 71 21.7 74 74 E 9 15 30.03 1017 10 16 0.00 0.00
10:53 pm 22:53 Mostly Clear 80 26.7 70 21.1 71 71 ESE 9 15 30.03 1017 10 16 0.00 0.00
11:53 pm 23:53 Partly Cloudy 80 26.7 71 21.7 74 74 ESE 8 13 30.02 1017 10 16 0.00 0.00

Powered by AerisWeather